Погода Луговая

Погода Луговая : погода сейчас, прогноз погоды и архив. Всё, что Вы хотите узнать о погоде Луговая!

Хотите узнать прогноз погоды Луговая? Тогда Вам сюда: Погода Луговая

Поиск расширенной информации на нашем сайте:

Полезная информация: Тампоны clean point купить проще и дешевле здесь!

Другие новости

Новости СМИ2

Главная страница сайта

Новости сайта

02.10.2013

Напоминаем, что на нашем новом сайте вы можете получить высокодетализированные прогнозы погоды по пунктам России, СНГ и мира (включающие важные для авиации метеовеличины, такие как направление и скорость ветра, видимость, явления погоды, количество и форма облачности, нижняя и верхняя граница облачности), а также ознакомиться с разнообразными материалами по авиационной метеорологии и подборкой полезных ссылок на эту тему.

Сайт Метеоцентр.Азия посвящён разработке технологий оптимизации авиаметеорологического обслуживания, включая проектирование и перспективное создание нескольких автоматизированных авиаметеорологических систем:
- система выпуска высокодетальных прогностических карт явлений погоды для нижнего воздушного пространства по России и ближнему зарубежью;
- система верификации прогнозов TAF (выпускаемых синоптиками официальных АМСГ РФ и ближнего зарубежья) и AUTOTAF (выпускаемых сайтом Метеоцентр.Азия) - выявление ошибок, онлайн-сопоставление с фактической погодой METAR, автоматическое внесение коррективов в прогнозы при резком отклонении фактической погоды от прогноза, подсчёт оправдываемости прогнозов по элементам и в целом;
- система обработки, анализа и отображения авиаметеорологической информации для применения провайдерами метеорологической информации.

Рекомендуем: Стихи и поздравления на заказ заказ стихов.

Погода Луговая - сегодня

Время (UTC), дата Ветер
(°,м/с) 
Видим.   Явления Облачность Т
(°С)
Тd
(°С)
f(%) Тe
(°С)
Pmin
(гПа)
dP
(гПа)
Po
(мм)
O2
(г/м3)
Тmin Tmax R s Состояние
почвы
03 25.06.17 тихо ()   20000 м    8/3 1000 м кучево-дожд., средняя 
[Cb cap|Ac trans]
+25.4 +12.6 45 +32  1007.6  0.7  698  255           
06 25.06.17 180 (Ю) 20000 м    6/6 1000 м кучево-дожд. 
[Cb cap]
+29 +10.6 32 +32  1006.8  698  252  +20.3         
09 25.06.17 110 (В) 20000 м    8/4 1000 м кучево-дожд., средняя 
[Cb cap|Ac trans]
+29.5 +10.4 31 +33  1006.2  -0.4  698  252           
12 25.06.17 070 (В) 20000 м    6/3 1000 м кучево-дожд., средняя 
[Cb cap|Ac trans]
+30.1 +10.3 29 +33  1005.8  0.2  698  251           
15 25.06.17 тихо ()   20000 м    3/3 1000 м кучево-дожд. 
[Cb cap]
+25.3 +11.2 41 +30  1007.9  0.8  698  255    +30.6       
18 25.06.17 180 (Ю) 20000 м    ясно 
+21.3 +10.3 49 +24  1008.9  -0.1  698  259    +30.6       
21 25.06.17 тихо ()   10 км    ясно 
+17.3 +9.5 60 +19  1009.1  -0.8  698  263           
00 26.06.17 тихо ()   20000 м    ясно 
+15 +8.8 66 +16  1009.8  -0.1  698  265           
03 26.06.17 020 (С) 20000 м    ясно 
+23.5 +11 45 +28  1007.1  -0.2  698  257           
06 26.06.17 050 (СВ) 20000 м    ясно 
+30.6 +7.3 23 +31  1005.1  -0.3  697  251  +14.7         
09 26.06.17 090 (В) 20000 м    3/3 1000 м 
[Cu hum]
+31.8 +6.8 21 +32  1002.8  -1.7  696  250           
12 26.06.17 070 (В) 20000 м    4/4 1000 м 
[Cu hum]
+30.8 +8.2 24 +31  1002.3  -0.7  695  250           
15 26.06.17 тихо ()   20000 м    9/9 600 м кучево-дожд. 
[Cb cap]
+27.4 +10.2 34 +30  1003.1  695  253    +32.4       
18 26.06.17 160 (Ю) 10 км    10/10 600 м кучево-дожд. 
[Cb cap]
+26 +11.2 40 +30  1005.4  1.7  697  254    +32.4       
21 26.06.17 250 (З) 10 км    6/6 600 м кучево-дожд. 
[Cb cap]
+23 +10.5 45 +26  1007.8  1.5  698  257           
00 27.06.17 230 (ЮЗ) 20000 м    10/10 600 м кучево-дожд. 
[Cb cap]
+21.4 +11.1 52 +26  1009.7  1.4  699  259           
03 27.06.17 160 (Ю) 10 км  слаб. ливневой дождь  10/10 600 м кучево-дожд. 
[Cb cap]
+18 +11.2 64 +23  1012.3  1.5  700  262         
06 27.06.17 160 (Ю) 10 км  слаб. ливневой дождь  10/10 600 м кучево-дожд. 
[Cb cap]
+20 +13.5 66 +28  1012.6  0.9  701  260  +17.8       
09 27.06.17 тихо ()   20000 м    9/9 600 м кучево-дожд. 
[Cb cap]
+24.2 +12.4 48 +30  1010.4  -1  700  257           
12 27.06.17 180 (Ю) 20000 м    9/9 600 м кучево-дожд. 
[Cb cap]
+22.4 +12 52 +28  1011.7  0.7  701  258           
15 27.06.17 160 (Ю) 20000 м    9/8 600 м кучево-дожд., средняя 
[Cb cap|Ac trans]
+21.8 +11.9 53 +27  1011.9  0.1  701  259    +24.5  0.0     
18 27.06.17 тихо ()   10 км    8/8 600 м кучево-дожд. 
[Cb cap]
+19.9 +12 60 +25  1012.6  0.1  701  261    +24.5  0.0     
21 27.06.17 230 (ЮЗ) 10 км    6/6 600 м кучево-дожд. 
[Cb cap]
+16.7 +9.9 64 +20  1013.7  0.1  701  264           
00 28.06.17 тихо ()   20000 м    4/3 600 м кучево-дожд., средняя 
[Cb cap|Ac trans]
+14.8 +8.5 66 +15  1014.9  0.6  701  266           
03 28.06.17 тихо ()   20000 м    3/0 средняя 
[Ac trans]
+22.4 +12 52 +28  1012.9  0.2  701  259           
Время (UTC), дата Ветер
(°,м/с) 
Видим.   Явления Облачность Т
(°С)
Тd
(°С)
f(%) Тe
(°С)
Pmin
(гПа)
dP
(гПа)
Po
(мм)
O2
(г/м3)
Тmin Tmax R s Состояние
почвы

Для получения пояснительной информации подведите курсор к названию столбца.

ПОГОДА Луговая - архив

Всё, что Вы хотите узнать о погоде Луговая - удобно и подробно!

Выберите нужную дату (начиная с 1 января 2015* года) и нажмите кнопку "Найти".
Будут отображены архивные сводки погоды по пункту Луговая, начиная с указанной даты.


Отображать данные в формате CSV (для использования в таблицах Excel)


Внимание! Наш архив погоды предназначен исключительно для личного некоммерческого использования в познавательных целях. Если Вам необходимы официальные справки о состоянии погоды (для производственных, юридических, коммерческих и т.п. целей), обращайтесь в органы Росгидромета.

*Примечание: данная дата относится к архиву по метеостанциям СССР (Россия, СНГ, Балтия).
Архив по метеостанциям Зарубежной Европы и Азии (кроме Китая) хранится 10 дней, по другим регионам земного шара (Китай, Африка, Америка, Австралия, Океания) - 1 день.

Луговая - район местоположения метеостанции


Название, широта, долгота, высота метеостанции:
Луговая 42.9°ш. 72.8°д. 683 м над ур. моря [Казахстан]

Дополнительная информация

В oтличие oт бoльшинства пoгoдных сайтoв мы публикуем пoдрoбную метеoинфoрмацию в детальнoм прoфессиoнальнoм фoрмате.

Характеристики температуры и влажнoсти вoздуха измеряются на высoте 2 м в тени вдали oт зданий и деревьев.
Скoрoсть ветра измеряется на высoте 10 м (на урoвне рoста челoвека скoрoсть ветра ниже в 1.5-2 раза). Если метеoстанция нахoдится в гoрoде или в лесу, тo скoрoсть ветра занижена на 2-4 м/с пo сравнению с oткрытым местoм. Скoрoсть ветра над акватoриями крупных рек и oзёр, а также на вершинах хoлмoв на 2-5 м/с выше, чем в oбычных услoвиях.
Атмoсфернoе давление в разных тoчках местнoсти мoжет значительнo oтличаться oт давления на метеoстанции, в зависимoсти oт услoвий рельефа (при пoдъёме на 10 м давление пoнижается примернo на 1 мм рт.ст.).